COSMOS 2251 DEB, 35459

Orbit data source: Space-Track

COSMOS 2251 DEB, 35459 is space debris in LEO originally from a launch on Wed, 16 Jun 1993 UTC launched from the Plesetsk Missile And Space Complex (PKMTR). The debris from Iridium 33, an American commercial communications satellite, has been tracked extensively since its accidental collision with the defunct Russian satellite Cosmos 2251 in 2009. This event, occurring at high speed in low Earth orbit (LEO), generated thousands of pieces of space debris, significantly increasing the risk of further collisions. The Iridium 33 debris cloud has impacted space traffic management and orbital debris mitigation strategies, making it a subject of ongoing study in space situational awareness.

Loading next visibility...
Identifier
35459, 1993-036ALD
Orbit
LEO
Country
Flag of CISCIS
Related business
Manufacturer
Unknown
Mission
Spacecraft
Bus & Motor
Unknown
Mass
Unknown
Launch date (UTC)
1993-06-16 (33 years ago)
Launch vehicle
Unknown
Launch site
Plesetsk Missile And Space Complex (PKMTR)
Object type
Payload
Rocket body
Debris
Shape & HBR
Unknown shape, 0.1 m
Radar Cross Section
Small (<0.1 m²)

Expand to show TLE details & history
Last TLE update: 19 hours ago

TLE from 19 hours ago
0 COSMOS 2251 DEB
1 35459U 93036ALD 26264.99325930  .00000368  00000-0  13089-3 0  9998
2 35459  73.8732  20.6176 0017742 269.9852  89.9268 14.37854830624324
Epoch: 2026-09-21T23:50Z
TLE epoch observation values (Epoch: 2026-09-21T23:50:17.603Z)
Latitude
-0°
Longitude
22.17913°
Altitude
768.205 km
Speed
7.47 km/s
True Right ascension
01h 22m 28s
True Declination
0° 00' 00"
Sunlit
Object was in full shadow at epoch
Visualization orbit readout
Latitude
Unknown
Longitude
Unknown
Altitude
Unknown
Speed
Unknown
Apparent Right ascension
Unknown
Apparent Declination
Unknown
Sunlit
N/A
Visualization observer readout
Local Sidereal Time
11:53:15
Azimuth
Unknown
Elevation
Unknown
Doppler factor
Unknown
Orbital elements
Apogee altitude
775.901 km
Perigee altitude
750.561 km
Semi-major axis
7,141.368 km
Eccentricity
0.00177
Inclination
73.8732°
RAAN
20.6176°
Arg. of periapsis
269.9852°
True anomaly
90.13011°
Mean anomaly
89.9268°
Eccentric anomaly
90.02845°
Mean motion
3.59643 °/min
Orbital period
100.1 mins
BSTAR
0.00013089

Documentation

Showing up to 5 results
|